Wink, TX

11:00 PM CDT on March 26, 2017 (GMT -0500)
Winkler County

Weather History for KINK - November, 2011

Change the Weather History Date:

Monday, November 14, 2011

  Actual Average Record
Temperature  
Mean Temperature 66 °F -  
Max Temperature 72 °F 68 °F 84 °F (1981)
Min Temperature 55 °F 38 °F 7 °F (1976)
Growing Degree Days 16 (Base 50)    
Moisture  
Dew Point 46 °F    
Average Humidity 51    
Maximum Humidity 67    
Minimum Humidity 38    
Precipitation  
Precipitation 0.00 in - - ()
Sea Level Pressure  
Sea Level Pressure 29.77 in    
Wind  
Wind Speed 8 mph (SW)    
Max Wind Speed 13 mph    
Max Gust Speed -    
Visibility 10 miles    
Events Rain    
Averages and records for this station are not official NWS values.
T = Trace of Precipitation, MM = Missing Value Source: NWS Daily Summary

Daily Weather History Graph

Daily Weather History Graph

Search for Another Location

Airport or City:

Trip Planner

Search our weather history database for the weather conditions in past years. The results will help you decide how hot, cold, wet, or windy it might be!

Date:

Astronomy

Nov. 14, 2011 Rise Set
Actual Time 7:20 AM CST 5:54 PM CST
Civil Twilight 6:54 AM CST 6:19 PM CST
Nautical Twilight 6:24 AM CST 6:49 PM CST
Astronomical Twilight 5:55 AM CST 7:18 PM CST
Moon 9:07 PM CST (11/14) 10:35 AM CST (11/14)
Length of Visible Light 11h 25m
Length of Day
10h 34m
Waning Gibbous, 86% of the Moon is Illuminated
Nov 14
Waning Gibbous
Nov 18
Last Quarter
Nov 25
New
Dec 2
First Quarter
Dec 10
Full

Hourly Weather History & Observations

Time (CST) Temp. Dew Point Humidity Pressure Visibility Wind Dir Wind Speed Gust Speed Precip Events Conditions
12:53 AM 61.0 °F 41.0 °F 48% 29.78 in 10.0 mi West 6.9 mph - N/A   Clear
1:53 AM 61.0 °F 39.9 °F 46% 29.78 in 10.0 mi West 6.9 mph - N/A   Clear
2:53 AM 62.1 °F 41.0 °F 46% 29.75 in 10.0 mi WNW 6.9 mph - N/A   Clear
3:53 AM 62.1 °F 41.0 °F 46% 29.75 in 10.0 mi WNW 10.4 mph - N/A   Partly Cloudy
4:53 AM 62.1 °F 45.0 °F 53% 29.76 in 10.0 mi NW 5.8 mph - N/A   Clear
5:53 AM 62.6 °F 44.6 °F 52% 29.90 in 10.0 mi West 6.9 mph - N/A   Mostly Cloudy
6:53 AM 61.0 °F 46.0 °F 58% 29.80 in 10.0 mi SSW 8.1 mph - 0.00 in   Overcast
7:53 AM 61.0 °F 48.0 °F 62% 29.82 in 10.0 mi SW 9.2 mph - N/A   Partly Cloudy
8:53 AM 62.1 °F 48.0 °F 60% 29.83 in 10.0 mi West 8.1 mph - N/A   Overcast
9:53 AM 64.0 °F 48.0 °F 56% 29.84 in 10.0 mi South 5.8 mph - 0.00 in   Mostly Cloudy
10:53 AM 63.0 °F 52.0 °F 67% 29.88 in 10.0 mi SSW 9.2 mph - 0.00 in Rain Light Rain
11:53 AM 64.9 °F 51.1 °F 61% 29.83 in 10.0 mi WSW 9.2 mph - 0.00 in   Overcast
12:53 PM 68.0 °F 48.0 °F 49% 29.76 in 10.0 mi SW 9.2 mph - N/A   Clear
1:53 PM 70.0 °F 46.9 °F 44% 29.71 in 10.0 mi SW 12.7 mph - N/A   Partly Cloudy
2:53 PM 72.0 °F 46.9 °F 41% 29.69 in 10.0 mi SSW 12.7 mph - N/A   Scattered Clouds
3:53 PM 72.0 °F 45.0 °F 38% 29.68 in 10.0 mi South 12.7 mph - N/A   Overcast
4:53 PM 71.1 °F 45.0 °F 39% 29.69 in 10.0 mi South 9.2 mph - N/A   Overcast
5:53 PM 69.1 °F 46.0 °F 44% 29.69 in 10.0 mi South 4.6 mph - N/A   Overcast
6:53 PM 66.9 °F 46.0 °F 47% 29.72 in 10.0 mi South 6.9 mph - N/A   Overcast
7:53 PM 66.9 °F 46.0 °F 47% 29.73 in 10.0 mi SSE 4.6 mph - N/A   Overcast
8:53 PM 66.0 °F 46.0 °F 48% 29.73 in 10.0 mi South 4.6 mph - N/A   Overcast
9:53 PM 60.1 °F 45.0 °F 57% 29.74 in 10.0 mi SW 3.5 mph - N/A   Mostly Cloudy
10:53 PM 59.0 °F 45.0 °F 60% 29.76 in 10.0 mi WSW 5.8 mph - N/A   Clear
11:53 PM 55.9 °F 44.1 °F 64% 29.74 in 10.0 mi SW 4.6 mph - N/A   Clear